Home   Weather   Fairfield Mountains   Past weeks
Flag for USA

Past Weather in Fairfield Mountains, North Carolina, USA — Yesterday and Last 2 Weeks

Now
53 °F

Clear.


Feels Like: 50 °F
Forecast: 67 / 41 °F
Wind: 9 mph from North

Location: Asheville Regional Airport

Current Time: Apr 2, 2020 at 10:25:02 pm

Latest Report: Apr 2, 2020 at 8:54 pm


Visibility: 10 mi

Pressure: 30.03 "Hg

Humidity: 47%

Dew Point: 33 °F

Location of Fairfield MountainsLocation

Past Weather in Fairfield Mountains — Graph

°F

Fairfield Mountains Temperature Yesterday

Maximum temperature yesterday: 49 °F (at 1:54 pm)
Minimum temperature yesterday: 40 °F (at 3:39 am)
Average temperature yesterday: 43 °F

High & Low Weather Summary for the Past Weeks

 TemperatureHumidityPressure
High85 °F (Mar 28, 3:02 pm)97% (Mar 19, 1:54 am)30.40 "Hg (Mar 19, 1:54 am)
Low40 °F (Apr 1, 3:39 am)23% (Mar 30, 1:54 pm)29.62 "Hg (Mar 31, 4:54 pm)
Average55 °F73%30.05 "Hg
* Reported Mar 18 8:54 pm — Apr 2 8:54 pm, Fairfield Mountains. Weather by CustomWeather, © 2020

Note: Actual official high and low records may vary slightly from our data, if they occured in-between our weather recording intervals... More about our weather records

Fairfield Mountains Weather History for the Previous 24 Hours

Scroll right to see more
 ConditionsComfort  
Time TempWeatherWind HumidityBarometerVisibility
8:54 pm
Thu, Apr 2
53 °FClear.9 mph47%30.03 "Hg10 mi
6:54 pm57 °FSunny.9 mph37%30.00 "Hg10 mi
5:54 pm60 °FSunny.10 mph33%29.98 "Hg10 mi
4:54 pm59 °FSunny.17 mph33%29.98 "Hg10 mi
3:54 pm59 °FSunny.14 mph36%30.00 "Hg10 mi
2:54 pm57 °FSunny.13 mph39%30.03 "Hg10 mi
1:54 pm55 °FSunny.18 mph42%30.06 "Hg10 mi
12:54 pm53 °FSunny.16 mph45%30.07 "Hg10 mi
11:54 am52 °FSunny.13 mph45%30.09 "Hg10 mi
10:54 am50 °FSunny.10 mph48%30.09 "Hg10 mi
9:54 am48 °FPassing clouds.12 mph54%30.09 "Hg10 mi
8:54 am45 °FSunny.15 mph60%30.08 "Hg10 mi
7:54 am43 °FSunny.13 mph65%30.07 "Hg10 mi
6:54 am42 °FClear.12 mph71%30.05 "Hg10 mi
5:54 am42 °FClear.14 mph73%30.02 "Hg10 mi
4:54 am43 °FPassing clouds.9 mph68%30.02 "Hg10 mi
3:54 am43 °FOvercast.7 mph65%30.01 "Hg10 mi
2:54 am42 °FPassing clouds.9 mph71%30.02 "Hg10 mi
1:54 am43 °FPassing clouds.5 mph68%30.02 "Hg10 mi
12:54 am43 °FClear.9 mph68%30.01 "Hg10 mi
11:54 pm
Wed, Apr 1
43 °FPassing clouds.8 mph68%30.01 "Hg10 mi
10:54 pm44 °FPassing clouds.8 mph63%29.99 "Hg10 mi
Weather by CustomWeather, © 2020

See weather overview

Advertising